{"data":{"norad_id":65332,"epoch":"2026-09-20T14:45:27.325440Z","epoch_age_seconds":107573,"freshness":"FRESH","line1":"1 65332U 25189K   26263.61489960  .00021848  00000+0  71338-3 0  9993","line2":"2 65332  53.1572  19.7009 0001083  92.4041 267.7085 15.31716908 59776","mean_motion":15.31716908,"eccentricity":0.0001083,"inclination_deg":53.1572,"raan_deg":19.7009,"arg_perigee_deg":92.4041,"mean_anomaly_deg":267.7085,"bstar":0.00071338,"rev_number":5977,"period_min":94.012150187742,"perigee_km":469.947865901,"apogee_km":471.43132174122,"semimajor_km":6848.8265938211,"source":"CELESTRAK","updated_at":"2026-09-21T09:00:35.570580Z"}}